Probability
6 6 3 3 6 6 3 3 6 0 0 0 0 0 0 0 3 0 3 58 71 77 58 55 52 48 52 42 42 35 35 35 39 45 35 23 26 16 16 13 23 23 16
13 13 3 6 6 3 3 3 3 3 3 3 3 3 0 0 0 3 0 19 74 74 68 58 55 48 48 55 52 42 42 35 42 39 35 35 29 23 16 16 16 10 13
13 13 6 13 13 6 6 3 0 0 0 0 0 0 0 0 3 0 0 6 16 61 61 65 68 61 55 55 55 52 48 45 48 45 42 39 35 29 26 19 13 13 19
16 13 10 13 10 10 6 0 0 0 0 0 0 0 0 0 3 0 0 0 3 13 35 58 61 65 65 55 61 52 45 48 48 48 48 39 29 26 23 26 26 19 13
23 10 13 10 10 10 6 6 6 6 3 0 0 0 3 0 0 0 0 0 0 0 3 23 61 65 55 58 58 52 52 42 45 42 35 29 35 29 16 19 23 13 10
29 19 13 16 13 6 10 3 6 6 3 3 3 3 0 3 3 0 0 0 0 0 0 0 10 29 55 61 61 55 52 52 45 39 39 35 29 32 23 23 23 13 10
23 19 19 19 10 13 6 0 0 3 3 0 0 3 3 0 0 3 3 3 3 3 3 3 3 6 6 45 55 55 48 45 42 42 45 32 29 32 32 26 19 16 13
29 29 19 23 16 10 10 6 6 10 13 10 10 3 3 0 0 3 3 3 3 6 6 6 0 6 6 6 6 32 42 45 45 45 42 39 35 29 26 26 16 13 13
32 26 26 19 26 23 13 16 10 13 13 3 3 3 3 3 3 3 3 3 3 3 3 3 0 0 0 0 6 10 42 45 35 32 35 29 29 29 16 23 19 13 6
32 29 29 26 23 16 19 23 16 10 10 3 3 3 3 3 3 3 3 3 3 3 3 3 3 0 0 0 0 0 3 23 29 29 35 32 29 29 26 16 13 16 10
29 39 42 26 29 32 29 26 26 19 6 3 3 3 3 3 3 3 3 3 3 3 3 0 0 0 3 0 0 0 0 6 16 23 26 26 26 29 23 16 16 10 6
29 39 35 26 29 35 29 26 29 29 10 6 3 3 3 3 3 3 3 3 3 3 3 0 0 0 0 0 0 0 0 0 0 3 6 10 19 16 23 13 13 10 6
35 35 39 32 32 32 32 29 23 26 19 13 6 3 3 3 3 3 3 3 3 3 6 3 0 0 0 0 0 0 0 0 0 0 0 0 6 10 10 10 13 10 10
42 39 35 35 32 35 35 32 32 29 26 23 19 16 6 6 3 3 3 3 3 3 0 0 0 0 0 0 0 0 0 0 0 0 0 0 0 0 0 0 0 0 0
35 39 39 35 35 39 39 32 29 26 26 19 16 16 10 3 3 3 3 3 3 3 3 0 0 0 0 0 0 0 0 0 0 0 0 0 0 0 0 0 0 0 0
35 35 35 29 39 39 35 35 32 26 23 19 16 13 13 10 6 3 3 3 3 3 3 0 0 0 0 0 0 0 0 0 0 0 0 0 0 0 0 0 0 0 0
39 35 32 32 35 35 32 32 32 32 26 23 19 19 13 10 6 3 3 3 3 3 3 3 0 0 0 0 0 0 0 0 0 0 0 0 0 0 0 0 0 0 0
39 39 42 35 39 32 29 29 29 29 26 26 19 16 13 13 10 6 3 3 3 3 3 3 0 0 0 0 0 0 0 0 0 0 0 0 0 0 0 0 0 0 0
39 39 42 32 32 32 29 29 26 29 26 26 23 13 13 10 10 6 3 3 3 3 3 0 0 0 0 0 0 0 0 0 0 0 0 0 0 0 0 0 0 0 0
35 35 35 42 32 29 26 26 29 29 29 23 16 13 10 6 6 6 6 6 3 3 3 0 0 0 0 0 0 0 0 0 0 0 0 0 0 0 0 0 0 0 0
35 35 32 35 29 23 29 26 29 26 23 19 16 16 13 6 6 6 6 6 3 3 3 0 0 0 0 0 0 0 0 0 0 0 0 0 0 0 0 0 0 0 0
29 32 35 35 32 26 23 19 23 23 16 16 16 19 19 10 6 6 6 6 6 6 0 0 0 0 0 0 0 0 0 0 0 0 0 0 0 0 0 0 0 0 0
29 26 26 29 29 26 16 16 13 13 16 16 16 16 13 13 6 6 6 0 0 3 0 3 0 0 0 0 0 0 0 0 0 0 0 0 0 0 0 0 0 0 0
32 32 32 26 23 23 13 6 0 10 10 13 16 16 13 13 6 6 3 3 6 0 0 0 0 0 0 0 0 0 0 0 0 0 0 0 0 0 0 0 0 0 0
39 29 32 26 23 16 6 6 0 0 3 6 6 13 10 10 6 3 3 3 3 3 0 0 0 0 0 0 0 0 0 0 0 0 0 0 0 0 0 0 0 0 0
32 29 26 23 16 10 6 3 0 0 0 3 6 10 10 10 10 3 3 3 3 3 0 0 0 0 0 0 0 0 0 0 0 0 0 0 0 0 0 0 0 0 0
Height
5891 5892 5892 5892 5892 5893 5893 5894 5894 5895 5895 5896 5897 5897 5897 5897 5897 5897 5898 5898 5898 5898 5898 5898 5897 5897 5897 5897 5896 5896 5896 5896 5895 5895 5894 5894 5894 5894 5893 5893 5893 5892 5892
5892 5892 5892 5892 5893 5893 5893 5894 5894 5895 5895 5896 5896 5897 5897 5897 5897 5897 5897 5897 5897 5897 5897 5897 5897 5896 5896 5896 5896 5895 5895 5895 5894 5894 5893 5893 5893 5892 5892 5891 5891 5891 5890
5892 5892 5893 5893 5893 5893 5893 5893 5894 5894 5895 5895 5896 5896 5897 5897 5896 5896 5896 5896 5896 5896 5896 5896 5896 5895 5895 5895 5895 5894 5894 5894 5893 5893 5892 5892 5891 5891 5890 5890 5889 5889 5889
5893 5893 5893 5893 5893 5893 5893 5893 5893 5894 5894 5895 5895 5896 5896 5896 5896 5896 5896 5895 5895 5895 5895 5895 5895 5894 5894 5894 5893 5893 5893 5892 5892 5891 5891 5890 5889 5889 5888 5888 5888 5887 5887
5893 5893 5892 5892 5892 5892 5892 5892 5893 5893 5893 5894 5894 5894 5895 5895 5895 5895 5894 5894 5894 5894 5894 5894 5893 5893 5893 5892 5892 5891 5891 5891 5890 5889 5889 5888 5887 5887 5886 5886 5886 5885 5885
5893 5893 5892 5892 5891 5891 5891 5891 5892 5892 5892 5892 5892 5893 5893 5893 5893 5893 5893 5893 5893 5893 5893 5892 5892 5891 5891 5890 5890 5890 5889 5888 5888 5887 5887 5886 5885 5884 5884 5883 5883 5882 5882
5893 5893 5892 5892 5891 5891 5891 5891 5891 5891 5891 5891 5891 5891 5891 5891 5891 5891 5891 5891 5891 5891 5891 5890 5890 5889 5889 5888 5888 5887 5886 5886 5885 5885 5884 5883 5882 5882 5881 5881 5880 5879 5879
5893 5892 5892 5891 5891 5891 5890 5890 5890 5890 5889 5889 5890 5889 5889 5890 5889 5890 5890 5889 5889 5889 5888 5888 5887 5886 5886 5885 5885 5884 5884 5883 5882 5882 5881 5880 5879 5879 5878 5877 5876 5876 5875
5893 5892 5891 5890 5890 5890 5889 5889 5889 5889 5888 5888 5888 5888 5888 5887 5887 5888 5887 5887 5886 5886 5885 5884 5884 5883 5883 5882 5882 5881 5880 5880 5879 5878 5877 5877 5876 5875 5874 5874 5873 5872 5871
5892 5891 5890 5890 5889 5889 5888 5888 5887 5887 5886 5886 5886 5886 5886 5885 5885 5885 5885 5884 5883 5883 5882 5881 5881 5880 5879 5879 5878 5878 5876 5875 5875 5874 5873 5872 5872 5871 5870 5869 5869 5868 5867
5891 5890 5889 5888 5888 5887 5887 5886 5885 5885 5885 5884 5884 5884 5883 5883 5882 5882 5882 5881 5880 5879 5879 5878 5877 5877 5876 5875 5874 5874 5873 5872 5871 5869 5869 5868 5867 5866 5865 5865 5864 5863 5862
5891 5889 5888 5887 5886 5886 5885 5884 5884 5883 5882 5882 5882 5881 5881 5880 5879 5879 5879 5878 5877 5876 5876 5875 5874 5873 5872 5871 5870 5870 5869 5868 5866 5865 5864 5863 5862 5861 5860 5859 5858 5857 5856
5889 5888 5887 5886 5885 5884 5883 5882 5882 5881 5880 5880 5879 5879 5878 5878 5877 5876 5876 5875 5874 5873 5872 5871 5870 5869 5868 5867 5866 5865 5864 5863 5862 5861 5860 5858 5857 5856 5855 5854 5853 5852 5851
5888 5886 5885 5884 5883 5882 5881 5880 5879 5879 5878 5877 5877 5876 5875 5875 5874 5873 5873 5872 5871 5870 5869 5868 5866 5865 5864 5863 5861 5860 5859 5858 5857 5855 5854 5853 5852 5851 5849 5848 5847 5846 5845
5886 5885 5883 5882 5881 5880 5879 5878 5877 5876 5875 5875 5874 5873 5872 5872 5871 5870 5869 5868 5868 5866 5865 5863 5862 5861 5859 5858 5857 5855 5854 5853 5851 5850 5849 5847 5846 5845 5844 5842 5841 5840 5839
5884 5882 5881 5880 5878 5877 5876 5875 5874 5873 5873 5872 5871 5870 5869 5868 5867 5866 5865 5864 5863 5862 5860 5859 5858 5856 5854 5853 5851 5850 5848 5847 5845 5844 5843 5841 5840 5839 5838 5836 5835 5834 5833
5881 5880 5878 5877 5875 5874 5873 5872 5871 5870 5869 5868 5867 5866 5865 5864 5863 5862 5861 5859 5858 5857 5855 5854 5852 5850 5849 5847 5845 5843 5842 5841 5839 5838 5836 5835 5834 5832 5831 5830 5828 5827 5826
5878 5877 5875 5874 5872 5871 5870 5869 5868 5867 5866 5865 5864 5862 5861 5860 5859 5857 5856 5855 5853 5852 5850 5849 5847 5845 5843 5841 5839 5837 5836 5834 5833 5831 5830 5828 5827 5825 5824 5822 5821 5820 5819
5873 5872 5871 5870 5869 5867 5866 5865 5864 5863 5862 5861 5859 5858 5857 5855 5854 5853 5851 5849 5848 5846 5845 5843 5841 5839 5837 5835 5833 5831 5829 5827 5825 5824 5822 5821 5819 5817 5816 5815 5814 5812 5811
5868 5867 5866 5865 5864 5863 5862 5861 5859 5858 5857 5856 5855 5853 5852 5850 5849 5847 5845 5844 5842 5840 5838 5837 5835 5833 5831 5828 5826 5824 5822 5820 5818 5817 5815 5813 5811 5809 5808 5807 5806 5805 5803
5862 5862 5861 5860 5859 5857 5856 5855 5854 5853 5852 5851 5849 5848 5847 5845 5843 5841 5840 5838 5836 5834 5832 5830 5828 5826 5824 5821 5819 5817 5814 5812 5810 5809 5807 5805 5803 5801 5800 5799 5798 5797 5796
5856 5856 5856 5854 5853 5852 5851 5850 5849 5848 5846 5845 5844 5842 5841 5839 5837 5835 5833 5831 5829 5827 5825 5823 5821 5818 5816 5814 5811 5809 5807 5805 5803 5801 5799 5798 5796 5794 5792 5791 5790 5789 5788
5850 5850 5849 5848 5847 5846 5844 5844 5842 5841 5840 5839 5837 5836 5834 5832 5830 5828 5826 5824 5822 5820 5818 5816 5813 5811 5809 5806 5804 5801 5799 5797 5795 5793 5791 5790 5788 5786 5785 5783 5782 5780 5779
5844 5843 5842 5842 5841 5839 5838 5836 5835 5834 5833 5832 5830 5828 5827 5825 5823 5821 5818 5816 5814 5812 5810 5808 5806 5804 5801 5799 5796 5794 5792 5790 5788 5786 5784 5782 5780 5778 5777 5775 5773 5772 5770
5837 5836 5836 5835 5834 5832 5831 5829 5828 5826 5825 5824 5822 5821 5819 5817 5815 5813 5811 5809 5806 5804 5802 5800 5798 5796 5793 5791 5789 5787 5784 5782 5780 5778 5776 5774 5772 5770 5768 5766 5764 5763 5761
5829 5829 5828 5827 5826 5825 5823 5822 5820 5819 5818 5816 5814 5813 5811 5809 5807 5805 5803 5801 5799 5797 5795 5792 5790 5788 5785 5783 5781 5779 5776 5774 5772 5770 5768 5765 5763 5761 5760 5758 5755 5753 5751
Wind_Speed
4 4 4 4 5 5 5 5 5 5 5 5 5 4 4 3 3 3 3 3 2 2 2 2 3 2 2 2 2 3 3 3 4 4 4 4 4 5 5 5 5 6 6
3 3 3 3 4 4 4 5 5 5 5 5 4 4 4 4 3 3 3 3 3 3 4 4 3 3 4 4 4 4 4 4 5 5 5 6 6 6 7 7 7 7 8
4 3 3 2 3 4 5 5 5 5 5 5 5 4 4 4 4 4 4 4 4 4 4 5 5 5 5 5 5 5 5 5 6 6 7 7 8 8 8 8 8 9 9
3 3 2 2 3 3 4 4 5 5 6 6 6 6 5 5 5 5 5 5 5 5 6 6 6 6 6 6 6 6 6 7 7 8 8 8 9 9 9 9 10 10 10
2 1 1 1 2 3 3 4 4 5 6 7 7 7 7 7 7 7 6 6 7 7 7 7 8 8 8 8 8 8 8 9 9 9 9 9 9 10 10 11 11 12 12
2 2 1 0 2 3 4 4 4 5 6 7 7 8 8 8 8 8 8 8 8 9 9 8 9 9 9 9 9 9 10 10 10 10 11 10 11 11 11 12 12 12 13
2 2 1 2 1 1 3 4 5 5 6 6 7 8 9 8 9 10 10 10 10 10 10 10 10 10 10 10 11 11 11 11 11 12 12 12 12 13 13 13 13 13 14
2 2 1 1 1 2 3 4 4 5 6 6 7 8 8 9 9 10 10 10 11 11 11 11 11 12 12 12 12 12 12 12 12 13 14 14 15 14 15 15 15 15 15
4 3 3 3 3 3 4 5 5 5 6 7 7 8 8 9 10 10 11 11 12 11 12 12 12 12 13 13 13 14 14 14 14 15 16 16 16 17 16 16 16 17 17
5 4 4 3 3 4 4 5 5 5 6 6 7 8 9 10 11 11 11 11 12 12 12 12 12 13 13 14 14 15 15 15 16 16 16 17 17 18 18 18 18 18 18
5 5 5 4 4 4 5 5 5 5 5 6 7 8 8 9 11 12 11 12 12 12 13 13 13 13 14 14 15 16 16 17 17 18 17 18 18 18 19 19 19 19 20
5 5 5 5 5 5 5 6 6 7 6 7 7 8 8 9 10 11 12 12 13 13 13 14 14 15 16 16 16 16 16 17 18 18 18 19 19 19 20 20 21 21 21
6 7 6 5 5 5 5 6 6 7 8 8 8 9 9 9 10 11 11 12 13 14 14 15 16 17 17 17 17 17 17 18 19 19 20 20 20 20 20 20 20 20 21
7 7 6 6 6 6 6 6 7 7 8 8 9 10 10 10 10 10 11 12 13 14 15 15 16 16 17 17 17 18 18 19 20 20 21 21 21 21 21 22 21 21 21
8 7 7 7 7 7 7 7 8 8 8 9 9 10 11 11 11 11 12 13 13 15 15 16 16 17 17 18 18 19 20 20 21 22 22 21 21 22 22 22 23 23 23
8 8 8 8 8 9 9 9 9 10 9 9 10 10 11 11 12 12 12 13 14 15 15 16 17 18 19 19 20 20 21 21 21 21 22 22 22 22 23 23 24 25 25
10 9 9 9 9 10 10 10 10 10 10 11 11 11 12 12 13 13 14 14 15 16 16 17 18 19 20 21 21 22 22 23 23 23 23 23 23 24 24 24 24 25 26
12 11 12 12 11 11 11 11 11 12 12 12 12 13 13 14 15 15 15 16 17 18 18 19 20 21 22 23 23 23 24 24 24 24 24 25 25 25 26 26 26 26 26
13 13 13 14 13 13 13 13 13 13 13 13 13 14 15 16 16 17 17 19 19 20 20 21 22 23 23 24 24 24 24 25 25 25 25 26 27 27 27 27 27 27 27
16 15 15 15 15 15 15 15 15 15 14 15 15 16 16 17 18 19 19 20 21 22 22 22 23 24 24 25 25 25 26 26 27 27 26 27 28 27 27 27 27 28 27
18 18 17 16 16 16 16 16 16 16 16 16 17 17 19 19 20 20 21 22 22 22 22 23 24 25 25 25 26 26 26 26 27 27 27 27 27 26 26 27 27 27 27
19 18 19 18 17 17 17 18 18 18 18 19 19 20 21 21 22 22 23 23 23 23 24 24 25 25 25 26 26 26 26 26 27 27 27 27 26 26 26 27 27 28 28
20 19 19 19 19 19 19 20 21 21 21 21 22 22 23 24 24 25 25 25 25 25 25 25 26 26 26 25 26 26 26 26 27 26 27 27 27 27 27 27 28 28 29
21 21 21 22 22 21 21 22 22 23 23 23 24 24 24 25 26 26 26 26 26 26 26 26 27 27 27 27 26 26 26 26 27 27 27 27 28 28 28 28 29 30 30
23 23 24 24 24 24 24 24 25 25 26 25 26 26 26 26 26 27 26 26 26 26 26 26 27 27 27 28 28 28 28 28 28 28 28 29 29 30 30 30 30 31 31
25 25 26 26 26 25 26 26 26 27 26 26 26 26 26 26 27 27 26 27 27 27 27 27 28 28 28 28 28 29 29 29 29 29 29 30 30 31 31 31 32 32 32
Wind_Direction
110 132 148 162 166 165 167 167 166 160 154 159 167 169 175 178 188 201 203 200 202 215 230 240 253 262 263 254 250 255 259 259 258 259 268 272 275 271 270 272 274 274 272
102 114 140 159 174 182 178 171 179 182 178 178 182 189 193 202 215 218 221 229 236 243 245 247 256 265 269 269 264 267 271 272 268 268 270 270 271 273 271 268 269 272 273
108 119 125 143 176 197 199 195 196 203 208 208 205 205 210 219 233 240 240 240 243 249 249 249 256 262 265 269 267 268 274 275 275 277 280 276 274 273 274 272 270 271 273
113 125 139 161 175 194 204 208 215 218 222 224 225 225 226 231 237 245 246 248 254 256 253 255 258 260 261 268 268 272 276 278 279 281 283 281 277 277 276 276 275 274 273
84 109 148 171 191 202 218 224 226 231 236 234 234 234 237 238 242 249 253 257 261 264 263 263 262 261 264 266 267 270 273 275 278 282 283 281 280 278 277 277 277 275 274
63 70 80 152 219 219 230 233 235 237 238 238 239 239 241 241 245 250 255 258 259 264 267 267 267 265 268 267 268 269 272 272 276 279 279 280 279 277 275 275 276 276 274
42 44 31 32 33 233 233 236 239 242 246 246 247 246 246 246 250 249 255 258 259 263 263 263 265 265 266 268 270 273 275 276 280 282 282 280 279 277 276 275 273 273 273
2 351 334 312 323 294 263 249 251 250 251 255 255 255 251 251 254 254 256 260 263 264 264 264 265 265 268 268 270 271 272 275 278 279 280 281 280 278 277 277 274 272 272
354 348 328 301 292 284 273 262 253 257 256 257 256 257 256 256 259 262 262 263 264 268 269 266 267 268 270 271 272 272 271 272 275 276 278 281 280 277 276 277 277 276 274
346 339 336 322 307 290 283 273 261 259 259 260 263 261 263 262 265 265 266 266 266 268 267 269 268 268 269 269 271 273 274 273 274 277 280 280 279 277 275 277 277 277 275
345 338 329 320 316 299 289 282 273 264 266 264 266 268 271 271 271 272 271 272 271 272 271 270 274 274 271 274 273 274 275 276 276 278 278 278 278 276 275 275 276 276 275
346 340 322 313 310 306 296 283 274 272 269 268 270 272 275 276 275 274 272 270 272 273 275 276 277 278 278 277 275 276 276 277 280 282 282 280 279 277 277 275 276 275 275
351 347 336 323 315 315 312 303 286 275 273 272 274 275 278 280 280 282 279 276 277 278 280 280 279 280 280 279 278 277 277 278 280 281 281 281 281 281 280 277 276 275 274
344 341 338 331 321 315 309 307 306 294 283 281 280 280 283 287 287 287 286 284 281 281 281 281 281 281 280 280 281 280 282 282 280 280 281 281 280 281 282 279 277 277 275
335 335 332 324 319 313 307 301 300 299 298 292 286 284 283 286 288 290 290 288 286 284 282 282 284 283 282 282 283 282 283 284 283 283 283 282 282 282 282 279 278 277 276
324 326 325 319 313 310 306 301 295 294 296 297 293 288 286 286 287 290 292 291 289 289 287 284 282 282 283 285 284 284 284 283 285 284 283 282 282 281 281 281 280 279 278
312 313 314 314 308 303 300 299 297 294 294 296 295 292 290 291 291 291 291 290 290 291 290 289 287 287 286 286 286 284 284 284 284 283 282 281 281 281 281 280 281 280 279
299 300 303 305 304 299 296 294 295 293 294 296 295 292 289 290 293 293 293 293 292 291 291 292 292 290 288 286 286 286 284 284 285 284 283 282 281 281 280 280 279 278 277
290 292 296 298 298 296 293 289 289 292 294 294 294 294 291 290 291 293 294 293 292 292 292 292 292 292 291 289 287 286 286 285 284 283 283 281 281 281 279 279 277 276 276
285 285 288 290 292 293 290 287 284 286 290 293 294 294 294 291 290 292 293 292 291 291 291 291 293 293 292 291 289 286 286 285 283 283 282 282 282 280 280 280 278 277 276
282 282 286 288 286 287 289 287 285 283 284 289 293 294 294 294 293 292 293 294 294 293 292 292 292 292 292 291 289 287 287 285 283 283 283 283 282 280 279 279 279 278 277
284 282 283 286 284 283 284 286 285 283 285 287 289 292 293 293 293 292 292 293 293 293 292 292 292 292 292 291 290 289 287 285 285 284 284 284 282 281 281 280 280 279 278
284 282 281 281 282 283 283 283 282 283 284 285 288 289 289 291 293 296 295 294 293 293 294 293 292 293 293 294 294 292 290 287 287 285 286 285 284 283 283 281 280 279 279
282 282 281 279 279 280 282 285 284 283 284 286 287 289 291 292 292 293 294 294 293 292 293 293 293 293 294 296 295 294 292 291 289 287 286 287 286 285 285 284 282 280 280
278 280 282 283 282 281 280 281 284 284 285 285 285 288 290 290 291 292 293 293 293 293 293 293 293 293 294 295 295 294 293 291 290 288 286 286 285 285 285 285 284 283 282
278 278 280 282 282 282 283 284 285 285 284 285 287 288 289 290 291 292 294 293 293 292 292 292 293 293 293 294 295 294 292 291 290 289 289 288 286 285 285 285 283 283 282